Weather History for KISP - February, 2014

Change the Weather History Date:

Thursday, February 20, 2014

  Actual Average Record
Temperature  
Mean Temperature 39 °F 34 °F  
Max Temperature 49 °F 41 °F 54 °F (1991)
Min Temperature 29 °F 26 °F 2 °F (2015)
Degree Days  
Heating Degree Days 26 31  
Month to date heating degree days 720 658  
Since 1 July heating degree days 3692 3650  
Cooling Degree Days 0 0  
Month to date cooling degree days 0 0  
Year to date cooling degree days 0 0  
Moisture  
Dew Point 29 °F    
Average Humidity 63    
Maximum Humidity 85    
Minimum Humidity 40    
Precipitation  
Precipitation 0.04 in 0.11 in 0.57 in (1988)
Month to date precipitation 4.15 2.21  
Year to date precipitation 8.13 5.85  
Snow  
Snow 0.00 in 0.30 in 0.80 in (2005)
Month to date snowfall 23.9 5.1  
Since 1 July snowfall 57.5 17.7  
Snow Depth 8.00 in    
Sea Level Pressure  
Sea Level Pressure 30.14 in    
Wind  
Wind Speed 7 mph (SW)    
Max Wind Speed 17 mph    
Max Gust Speed 23 mph    
Visibility 8 miles    
Events Rain    
T = Trace of Precipitation, MM = Missing Value Source: NWS Daily Summary

Daily Weather History Graph

Daily Weather History Graph

Search for Another Location

Airport or City:

Trip Planner

Search our weather history database for the weather conditions in past years. The results will help you decide how hot, cold, wet, or windy it might be!

Date:

Astronomy

Feb. 20, 2014 Rise Set
Actual Time 6:39 AM EST 5:33 PM EST
Civil Twilight 6:11 AM EST 6:01 PM EST
Nautical Twilight 5:39 AM EST 6:32 PM EST
Astronomical Twilight 5:08 AM EST 7:04 PM EST
Moon 11:27 PM EST (2/20) 9:18 AM EST (2/20)
Length of Visible Light 11h 49m
Length of Day
10h 53m
Waning Gibbous, 71% of the Moon is Illuminated
Feb 20
Waning Gibbous
Feb 22
Last Quarter
Mar 1
New
Mar 8
First Quarter
Mar 16
Full

Hourly Weather History & Observations

Time (EST) Temp. Windchill Dew Point Humidity Pressure Visibility Wind Dir Wind Speed Gust Speed Precip Events Conditions
12:56 AM 42.1 °F 34.9 °F 30.9 °F 65% 29.99 in 10.0 mi WNW 13.8 mph - N/A   Clear
1:56 AM 41.0 °F 33.9 °F 28.9 °F 62% 30.06 in 10.0 mi West 12.7 mph - N/A   Clear
2:56 AM 39.0 °F 34.0 °F 27.0 °F 62% 30.08 in 10.0 mi WNW 6.9 mph - N/A   Clear
3:56 AM 37.0 °F 31.6 °F 26.1 °F 65% 30.11 in 10.0 mi West 6.9 mph - N/A   Clear
4:56 AM 33.1 °F 26.1 °F 25.0 °F 72% 30.14 in 10.0 mi WSW 8.1 mph - N/A   Clear
5:56 AM 33.1 °F 28.7 °F 25.0 °F 72% 30.16 in 10.0 mi West 4.6 mph - N/A   Partly Cloudy
6:56 AM 30.9 °F 27.5 °F 24.1 °F 76% 30.19 in 10.0 mi West 3.5 mph - N/A   Partly Cloudy
7:56 AM 36.0 °F - 28.0 °F 73% 30.22 in 10.0 mi Calm Calm - N/A   Scattered Clouds
8:56 AM 39.9 °F 35.8 °F 28.0 °F 63% 30.22 in 10.0 mi NNW 5.8 mph - N/A   Scattered Clouds
9:56 AM 43.0 °F - 28.9 °F 58% 30.21 in 10.0 mi Calm Calm - N/A   Scattered Clouds
10:56 AM 46.9 °F - 25.0 °F 42% 30.24 in 10.0 mi Calm Calm - N/A   Mostly Cloudy
11:56 AM 45.0 °F 40.1 °F 23.0 °F 42% 30.24 in 10.0 mi South 9.2 mph - N/A   Mostly Cloudy
12:56 PM 45.0 °F 40.6 °F 24.1 °F 44% 30.20 in 10.0 mi South 8.1 mph - N/A   Mostly Cloudy
1:56 PM 45.0 °F 40.6 °F 21.9 °F 40% 30.20 in 10.0 mi SSE 8.1 mph - N/A   Mostly Cloudy
2:56 PM 45.0 °F 40.1 °F 21.9 °F 40% 30.19 in 10.0 mi South 9.2 mph - N/A   Mostly Cloudy
3:56 PM 42.1 °F 36.6 °F 25.0 °F 51% 30.18 in 10.0 mi SSE 9.2 mph - N/A   Mostly Cloudy
4:56 PM 39.9 °F 35.1 °F 27.0 °F 60% 30.19 in 10.0 mi SSE 6.9 mph - N/A   Overcast
5:56 PM 39.9 °F 34.5 °F 28.9 °F 65% 30.15 in 10.0 mi SSE 8.1 mph - N/A   Overcast
6:56 PM 37.9 °F 34.4 °F 32.0 °F 79% 30.14 in 10.0 mi ESE 4.6 mph - 0.00 in   Overcast
7:56 PM 39.9 °F - 34.0 °F 79% 30.12 in 10.0 mi Calm Calm - N/A   Overcast
8:56 PM 39.0 °F 34.8 °F 35.1 °F 86% 30.10 in 3.0 mi ESE 5.8 mph - 0.01 in Rain Light Rain
9:56 PM 39.0 °F 33.4 °F 36.0 °F 89% 30.09 in 3.0 mi North 8.1 mph - 0.02 in Rain Light Rain
10:23 PM 37.4 °F 32.1 °F 35.6 °F 93% 30.08 in 2.0 mi North 6.9 mph - 0.01 in Rain Light Rain
10:54 PM 37.4 °F 30.8 °F 35.6 °F 93% 30.07 in 1.0 mi NNE 9.2 mph - 0.01 in   Overcast
10:56 PM 37.9 °F 32.1 °F 35.1 °F 89% 30.08 in 1.0 mi North 8.1 mph - 0.01 in   Light Drizzle
11:43 PM 37.4 °F 31.4 °F 35.6 °F 93% 30.05 in 2.0 mi ENE 8.1 mph - 0.00 in Rain Light Rain
11:56 PM 37.9 °F 31.5 °F 36.0 °F 93% 30.04 in 3.0 mi ENE 9.2 mph - 0.00 in Rain Light Rain